Regional Weather Roundup
Issued by NWS

Home | Current Version | Previous Version | Graphics & Text | Print | Product List | Glossary On
Versions: 1 2 3 4 5 6 7 8 9 10 11 12 13 14 15 16 17 18 19 20 21 22 23 24 25 26 27 28 29 30 31 32 33 34 35 36 37 38 39 40 41 42 43 44 45 46 47 48 49 50
405
ASUS43 KBIS 290102
RWRND

NORTH DAKOTA REGIONAL WEATHER ROUNDUP
NATIONAL WEATHER SERVICE BISMARCK ND
800 PM CDT TUE MAR 28 2017

NOTE: "FAIR" INDICATES FEW OR NO CLOUDS BELOW 12,000 FEET WITH NO
SIGNIFICANT WEATHER AND/OR OBSTRUCTIONS TO VISIBILITY.


NDZ001>003-009>011-017-290200-
NORTHWEST NORTH DAKOTA

CITY           SKY/WX    TMP DP  RH WIND       PRES   REMARKS
WILLISTON      LGT RAIN  45  42  89 S3        30.09F FOG
MINOT          CLOUDY    50  43  77 E12       30.09R
MINOT AFB      CLOUDY    45  41  87 SE9       30.08R
$$

NDZ018>021-031>035-040>046-290200-
SOUTHWEST NORTH DAKOTA

CITY           SKY/WX    TMP DP  RH WIND       PRES   REMARKS
BISMARCK       FAIR      56  38  50 SE14      30.12R
DICKINSON      CLOUDY    50  38  63 W12       30.06R
GARRISON         N/A     48  38  68 SE12      30.08R
HETTINGER ARPT MOCLDY    51  41  68 S12       30.11R
$$

NDZ004>008-012>016-024-026-027-054-290200-
NORTHEAST NORTH DAKOTA

CITY           SKY/WX    TMP DP  RH WIND       PRES   REMARKS
GRAND FORKS    MOCLDY    44  42  93 N7        30.20R
GRND FRKS AFB  PTCLDY    42  40  96 N9        30.21R
DEVILS LAKE    FAIR      43  38  82 SE9       30.18R
$$

NDZ022-023-025-028>030-036>039-047>053-290200-
SOUTHEAST NORTH DAKOTA

CITY           SKY/WX    TMP DP  RH WIND       PRES   REMARKS
FARGO          CLOUDY    53  40  61 N5        30.17R
JAMESTOWN      FAIR      47  39  74 E7        30.16R
$$





USA.gov is the U.S. government's official web portal to all federal, state and local government web resources and services.